GW1515 Weather Reports


Display with metric or nautical units.
time (UTC)temp
F
wind
direction
speed
MPH
gust
MPH
rain 1hr
in
rain 24hr
in
rain mn
in
humidity
%
barometer
mb
20260503055015 45 192 4.0 11.0 0.00 0.00 0.00 60 1016.0
20260503054511 45 213 6.0 10.0 0.00 0.00 0.00 60 1016.2
20260503054008 45 218 3.0 7.0 0.00 0.00 0.00 60 1016.0
20260503053506 45 225 3.0 6.0 0.00 0.00 0.00 60 1016.1
20260503053004 45 209 4.0 9.0 0.00 0.00 0.00 60 1016.3
20260503052500 45 220 3.0 8.0 0.00 0.00 0.00 60 1016.2
20260503051956 45 238 4.0 8.0 0.00 0.00 0.00 60 1016.4
20260503051452 45 200 3.0 6.0 0.00 0.00 0.00 60 1016.2
20260503050950 45 204 8.0 11.0 0.00 0.00 0.00 60 1016.3
20260503050445 45 219 2.0 8.0 0.00 0.00 0.00 61 1016.3
20260503045943 45 215 2.0 6.0 0.00 0.00 0.00 61 1016.4
20260503045441 45 216 3.0 7.0 0.00 0.00 0.00 61 1016.2
20260503044937 45 202 4.0 6.0 0.00 0.00 0.00 61 1016.5
20260503044434 45 188 2.0 5.0 0.00 0.00 0.00 61 1016.5
20260503043932 45 218 3.0 6.0 0.00 0.00 0.00 61 1016.4
20260503043428 45 202 4.0 5.0 0.00 0.00 0.00 60 1016.5
20260503042924 46 179 3.0 6.0 0.00 0.00 0.00 59 1016.4
20260503042421 46 183 1.0 5.0 0.00 0.00 0.00 59 1016.8
20260503041918 46 199 4.0 5.0 0.00 0.00 0.00 58 1016.6
20260503041415 46 201 4.0 5.0 0.00 0.00 0.00 59 1016.5
20260503040912 46 190 3.0 6.0 0.00 0.00 0.00 58 1016.6
20260503040409 46 216 3.0 4.0 0.00 0.00 0.00 58 1016.5
20260503035906 46 218 4.0 6.0 0.00 0.00 0.00 58 1016.5
20260503035403 46 172 2.0 7.0 0.00 0.00 0.00 58 1016.6
20260503034900 46 210 3.0 5.0 0.00 0.00 0.00 58 1016.6
20260503034358 46 204 3.0 5.0 0.00 0.00 0.00 58 1016.5
20260503033855 46 208 3.0 5.0 0.00 0.00 0.00 58 1016.7
20260503033352 46 201 2.0 6.0 0.00 0.00 0.00 58 1016.6
20260503032850 46 193 3.0 5.0 0.00 0.00 0.00 57 1016.7
20260503032349 46 203 3.0 5.0 0.00 0.00 0.00 57 1016.6
20260503031846 46 165 2.0 4.0 0.00 0.00 0.00 57 1016.6
20260503031344 46 162 2.0 5.0 0.00 0.00 0.00 57 1016.6
20260503030840 47 191 3.0 4.0 0.00 0.00 0.00 56 1016.6
20260503030336 47 198 2.0 4.0 0.00 0.00 0.00 55 1016.8
20260503025833 47 187 2.0 5.0 0.00 0.00 0.00 56 1016.7
20260503025330 47 193 1.0 3.0 0.00 0.00 0.00 55 1016.6
20260503024827 47 199 2.0 4.0 0.00 0.00 0.00 55 1016.9
20260503024324 47 205 2.0 4.0 0.00 0.00 0.00 54 1016.9
20260503023821 47 199 2.0 3.0 0.00 0.00 0.00 54 1016.7
20260503023318 47 185 2.0 3.0 0.00 0.00 0.00 54 1016.8
20260503022814 47 202 2.0 3.0 0.00 0.00 0.00 53 1016.8
20260503022309 48 124 2.0 4.0 0.00 0.00 0.00 52 1016.8
20260503021805 48 167 1.0 4.0 0.00 0.00 0.00 53 1016.9
20260503021302 48 118 0.0 3.0 0.00 0.00 0.00 52 1016.6
20260503020759 49 195 2.0 4.0 0.00 0.00 0.00 52 1016.7
20260503020257 49 197 1.0 5.0 0.00 0.00 0.00 51 1016.9
20260503015753 49 191 2.0 5.0 0.00 0.00 0.00 51 1016.6
20260503015250 49 201 2.0 4.0 0.00 0.00 0.00 50 1016.8
20260503014745 49 224 0.0 3.0 0.00 0.00 0.00 50 1016.7
20260503014244 49 230 0.0 4.0 0.00 0.00 0.00 50 1016.6
20260503013741 49 210 3.0 4.0 0.00 0.00 0.00 50 1016.7
20260503013238 50 196 0.0 3.0 0.00 0.00 0.00 50 1016.7
20260503012735 50 193 3.0 4.0 0.00 0.00 0.00 49 1016.5
20260503012233 50 223 3.0 5.0 0.00 0.00 0.00 48 1016.4
20260503011729 50 193 2.0 3.0 0.00 0.00 0.00 48 1016.5
20260503011226 50 162 0.0 3.0 0.00 0.00 0.00 49 1016.4
20260503010722 50 235 1.0 2.0 0.00 0.00 0.00 49 1016.4
20260503010219 50 202 0.0 3.0 0.00 0.00 0.00 49 1016.4
20260503005717 51 170 1.0 2.0 0.00 0.00 0.00 48 1016.5
20260503005214 52 230 2.0 4.0 0.00 0.00 0.00 47 1016.5
20260503004710 52 212 2.0 7.0 0.00 0.00 0.00 45 1016.6
20260503004209 52 256 1.0 5.0 0.00 0.00 0.00 46 1016.5
20260503003706 53 241 2.0 4.0 0.00 0.00 0.00 45 1016.5
20260503003203 53 238 3.0 7.0 0.00 0.00 0.00 43 1016.4
20260503002659 54 237 3.0 9.0 0.00 0.00 0.00 42 1016.5
20260503002156 54 216 3.0 6.0 0.00 0.00 0.00 42 1016.5
20260503001651 54 220 1.0 8.0 0.00 0.00 0.00 42 1016.5
20260503001149 54 234 2.0 5.0 0.00 0.00 0.00 42 1016.6
20260503000647 55 246 2.0 3.0 0.00 0.00 0.00 41 1016.6
20260503000143 56 224 2.0 4.0 0.00 0.00 0.00 39 1016.4
20260502235640 55 264 3.0 4.0 0.00 0.00 0.00 40 1016.4
20260502235138 54 264 2.0 6.0 0.00 0.00 0.00 41 1016.7
20260502234634 54 192 0.0 7.0 0.00 0.00 0.00 42 1016.6
20260502234131 55 225 2.0 9.0 0.00 0.00 0.00 41 1016.6
20260502233627 55 242 5.0 11.0 0.00 0.00 0.00 39 1016.6
20260502233124 55 245 5.0 5.0 0.00 0.00 0.00 40 1016.6
20260502232620 55 184 3.0 8.0 0.00 0.00 0.00 41 1016.7
20260502232118 55 207 1.0 3.0 0.00 0.00 0.00 41 1016.9
20260502231614 55 187 1.0 6.0 0.00 0.00 0.00 41 1016.6
20260502231112 54 215 3.0 4.0 0.00 0.00 0.00 43 1016.8
20260502230610 54 255 5.0 7.0 0.00 0.00 0.00 42 1017.0
20260502230109 54 233 7.0 11.0 0.00 0.00 0.00 41 1017.1
20260502225604 54 253 1.0 7.0 0.00 0.00 0.00 42 1016.8
20260502225101 55 246 3.0 7.0 0.00 0.00 0.00 40 1017.0
20260502224557 57 234 5.0 8.0 0.00 0.00 0.00 39 1016.8
20260502224054 57 193 3.0 6.0 0.00 0.00 0.00 40 1017.0
20260502223552 56 242 3.0 8.0 0.00 0.00 0.00 39 1017.0
20260502223050 55 241 4.0 10.0 0.00 0.00 0.00 42 1017.0
20260502222547 55 222 3.0 9.0 0.00 0.00 0.00 41 1016.9
20260502222043 57 277 5.0 7.0 0.00 0.00 0.00 38 1017.1
20260502221539 56 242 8.0 14.0 0.00 0.00 0.00 38 1017.2
20260502221037 56 244 4.0 16.0 0.00 0.00 0.00 39 1017.1
20260502220532 58 36 0.0 7.0 0.00 0.00 0.00 40 1016.9
20260502220029 58 206 3.0 5.0 0.00 0.00 0.00 39 1016.8
20260502215526 57 280 2.0 5.0 0.00 0.00 0.00 41 1017.1
20260502215023 55 292 3.0 6.0 0.00 0.00 0.00 39 1017.1
20260502214520 55 6 1.0 7.0 0.00 0.00 0.00 42 1017.1
20260502214018 54 263 1.0 5.0 0.00 0.00 0.00 43 1017.0
20260502213514 54 233 3.0 4.0 0.00 0.00 0.00 45 1017.4
20260502213012 53 0 0.0 6.0 0.00 0.00 0.00 43 1017.2
20260502212511 54 18 3.0 10.0 0.00 0.00 0.00 43 1017.5
20260502212008 55 268 1.0 4.0 0.00 0.00 0.00 44 1017.2
20260502211503 54 277 2.0 3.0 0.00 0.00 0.00 43 1017.1
20260502211001 53 336 3.0 7.0 0.00 0.00 0.00 44 1017.5
20260502210457 53 250 3.0 6.0 0.00 0.00 0.00 45 1017.4
20260502205955 52 252 3.0 6.0 0.00 0.00 0.00 46 1017.6
20260502205451 53 344 5.0 7.0 0.00 0.00 0.00 44 1017.5
20260502204948 53 349 7.0 8.0 0.00 0.00 0.00 43 1017.6
20260502204445 52 347 4.0 10.0 0.00 0.00 0.00 44 1017.8
20260502203943 53 42 1.0 4.0 0.00 0.00 0.00 45 1017.5
20260502203440 52 14 5.0 7.0 0.00 0.00 0.00 42 1017.6
20260502202936 53 340 4.0 7.0 0.00 0.00 0.00 43 1017.8
20260502202433 53 300 6.0 8.0 0.00 0.00 0.00 42 1017.9
20260502201931 53 224 2.0 8.0 0.00 0.00 0.00 43 1017.9
20260502201427 53 304 5.0 11.0 0.00 0.00 0.00 40 1018.0
20260502200924 54 288 4.0 7.0 0.00 0.00 0.00 38 1017.9
20260502200419 54 282 2.0 7.0 0.00 0.00 0.00 40 1017.8
20260502195917 55 278 4.0 6.0 0.00 0.00 0.00 39 1018.0
20260502195414 54 296 3.0 12.0 0.00 0.00 0.00 38 1018.0
20260502194910 57 332 4.0 8.0 0.00 0.00 0.00 37 1018.0
20260502194408 56 244 6.0 9.0 0.00 0.00 0.00 38 1018.2
20260502193903 55 332 7.0 9.0 0.00 0.00 0.00 40 1018.3
20260502193401 53 271 5.0 12.0 0.00 0.00 0.00 39 1018.5
20260502192856 55 286 3.0 9.0 0.00 0.00 0.00 39 1018.5
20260502192353 54 137 1.0 11.0 0.00 0.00 0.00 44 1018.6
20260502191850 57 290 8.0 9.0 0.00 0.00 0.00 37 1018.4
20260502191348 54 309 2.0 11.0 0.00 0.00 0.00 40 1018.6
20260502190845 54 37 3.0 10.0 0.00 0.00 0.00 37 1018.6
20260502190343 55 286 4.0 15.0 0.00 0.00 0.00 38 1018.6
20260502185838 55 299 5.0 14.0 0.00 0.00 0.00 38 1018.6
20260502185334 55 343 4.0 8.0 0.00 0.00 0.00 39 1018.6
20260502184832 54 290 4.0 6.0 0.00 0.00 0.00 39 1018.9
20260502184326 55 279 3.0 7.0 0.00 0.00 0.00 36 1018.7
20260502183824 55 309 4.0 7.0 0.00 0.00 0.00 39 1018.8
20260502183320 56 253 4.0 8.0 0.00 0.00 0.00 38 1019.1
20260502182815 54 303 0.0 8.0 0.00 0.00 0.00 39 1019.1
20260502182310 54 268 4.0 12.0 0.00 0.00 0.00 41 1019.0
20260502181807 52 28 7.0 12.0 0.00 0.00 0.00 40 1019.0
20260502181306 53 324 3.0 15.0 0.00 0.00 0.00 38 1019.1
20260502180803 52 328 4.0 9.0 0.00 0.00 0.00 41 1019.2
20260502180300 52 328 4.0 10.0 0.00 0.00 0.00 42 1019.1
20260502170219 52 335 3.0 6.0 0.00 0.00 0.00 41 1019.6
20260502164207 51 297 8.0 11.0 0.00 0.00 0.00 40 1019.9
20260502163702 51 247 4.0 8.0 0.00 0.00 0.00 41 1019.6
20260502163159 53 337 6.0 12.0 0.00 0.00 0.00 39 1019.8
20260502162656 52 169 2.0 6.0 0.00 0.00 0.00 43 1019.8
20260502162153 51 296 2.0 11.0 0.00 0.00 0.00 43 1020.0
20260502161650 50 289 4.0 7.0 0.00 0.00 0.00 44 1020.1
20260502161147 50 337 7.0 12.0 0.00 0.00 0.00 42 1020.1
20260502160645 50 7 0.0 7.0 0.00 0.00 0.00 43 1020.1
20260502160144 50 357 3.0 7.0 0.00 0.00 0.00 42 1020.1
20260502152057 50 340 3.0 9.0 0.00 0.00 0.00 49 1020.3
20260502151554 49 30 11.0 11.0 0.00 0.00 0.00 45 1020.3
20260502151052 50 281 5.0 10.0 0.00 0.00 0.00 47 1020.3
20260502150549 50 297 4.0 7.0 0.00 0.00 0.00 45 1020.3
20260502130434 43 275 0.0 2.0 0.00 0.00 0.00 68 1020.0
20260502123417 40 296 2.0 3.0 0.00 0.00 0.00 72 1019.9
20260502122914 40 342 2.0 3.0 0.00 0.00 0.00 73 1019.9
20260502122410 40 290 0.0 2.0 0.00 0.00 0.00 75 1019.9
20260502121908 39 325 0.0 2.0 0.00 0.00 0.00 77 1020.0
20260502121405 38 19 0.0 2.0 0.00 0.00 0.00 80 1019.7
20260502120903 37 329 1.0 2.0 0.00 0.00 0.00 82 1019.8
20260502120358 36 25 0.0 2.0 0.00 0.00 0.00 85 1019.9
20260502115856 35 359 0.0 2.0 0.00 0.00 0.00 87 1019.6
20260502115353 35 261 1.0 3.0 0.00 0.00 0.00 90 1019.6
20260502114849 35 67 0.0 2.0 0.00 0.00 0.00 93 1019.6
20260502114346 34 76 1.0 2.0 0.00 0.00 0.00 95 1019.6
20260502113843 33 352 0.0 2.0 0.00 0.00 0.00 95 1019.6
20260502113340 33 330 0.0 2.0 0.00 0.00 0.00 96 1019.6
20260502112839 33 285 0.0 2.0 0.00 0.00 0.00 96 1019.5
20260502112336 34 30 0.0 2.0 0.00 0.00 0.00 97 1019.4
20260502111834 31 292 0.0 2.0 0.00 0.00 0.00 97 1019.5
20260502111331 30 100 0.0 2.0 0.00 0.00 0.00 97 1019.4
20260502110828 30 216 0.0 2.0 0.00 0.00 0.00 97 1019.3
20260502110326 30 135 0.0 2.0 0.00 0.00 0.00 97 1019.5
20260502105823 29 32 0.0 2.0 0.00 0.00 0.00 97 1019.1
20260502105320 29 331 0.0 2.0 0.00 0.00 0.00 97 1019.2
20260502104818 29 319 0.0 3.0 0.00 0.00 0.00 97 1019.2
20260502104315 29 323 0.0 2.0 0.00 0.00 0.00 97 1019.2
20260502103812 29 174 0.0 2.0 0.00 0.00 0.00 97 1019.3
20260502103309 29 104 0.0 2.0 0.00 0.00 0.00 97 1019.2
20260502102807 29 235 0.0 2.0 0.00 0.00 0.00 97 1019.2
20260502102306 29 89 0.0 2.0 0.00 0.00 0.00 97 1019.1
20260502101801 29 253 0.0 1.0 0.00 0.00 0.00 97 1019.1
20260502101259 29 135 0.0 2.0 0.00 0.00 0.00 97 1019.2
20260502100756 30 128 0.0 2.0 0.00 0.00 0.00 97 1019.4
20260502100255 30 100 0.0 2.0 0.00 0.00 0.00 97 1019.2
20260502091229 29 91 1.0 2.0 0.00 0.00 0.00 97 1018.9
20260502090727 29 64 1.0 2.0 0.00 0.00 0.00 96 1019.1
20260502090223 29 40 0.0 2.0 0.00 0.00 0.00 96 1019.1
20260502071119 32 256 0.0 2.0 0.00 0.00 0.00 94 1019.2
20260502070617 32 155 1.0 2.0 0.00 0.00 0.00 94 1019.2
20260502070115 31 49 0.0 2.0 0.00 0.00 0.00 93 1019.4
20260502065613 31 228 0.0 2.0 0.00 0.00 0.00 93 1019.5
20260502065110 31 48 1.0 2.0 0.00 0.00 0.00 93 1019.5
20260502064609 31 69 0.0 2.0 0.00 0.00 0.00 93 1019.4
20260502064105 32 89 0.0 1.0 0.00 0.00 0.00 92 1019.5
20260502063603 32 234 0.0 1.0 0.00 0.00 0.00 92 1019.5
20260502063101 32 111 1.0 2.0 0.00 0.00 0.00 91 1019.6
20260502062558 32 135 0.0 2.0 0.00 0.00 0.00 91 1019.6
20260502062055 32 63 0.0 2.0 0.00 0.00 0.00 91 1019.4
20260502061553 32 97 0.0 2.0 0.00 0.00 0.00 90 1019.4
20260502061050 32 99 0.0 2.0 0.00 0.00 0.00 90 1019.5
20260502060545 32 147 0.0 1.0 0.00 0.00 0.00 90 1019.7
20260502060042 32 69 0.0 2.0 0.00 0.00 0.00 90 1019.9